Location: *
(60.1759°S, 155.0663°W)
Time: 19:57:06
(UTC+00:00)

Meteor 1-27 Rocket - Pass Details

Date: 17 September 2019
Orbit: 829 x 911 km, 81.3° (Epoch: 13 October)

Event Time Altitude Azimuth Distance (km) Brightness Sun altitude
Rises 14:11:08 0° 198° (SSW) 3,519 7.0 -16.8°
Reaches altitude 10° 14:13:42 10° 205° (SSW) 2,587 6.2 -16.5°
Maximum altitude 14:19:09 40° 272° (W) 1,319 4.3 -15.9°
Enters shadow 14:24:27 11° 338° (NNW) 2,545 5.8 -15.3°
